Location: ????????
(55.3155°N, 39.2900°E)
Time: 18:05:30
(UTC+00:00)

ACS3 Solar Sail - Pass Details

Date: 21 November 2025
Orbit: 889 x 1003 km, 97.3° (Epoch: 06 December)

Event Time Altitude Azimuth Distance (km) Brightness Sun altitude
Rises 02:12:53 0° 11° (N) 3,573 4.9 -24.2°
Reaches altitude 10° 02:15:30 10° 2° (N) 2,644 4.1 -23.8°
Enters shadow 02:19:18 30° 327° (NNW) 1,628 2.7 -23.3°
